Regional Weather Roundup
Issued by NWS

Home | Current Version | Previous Version | Graphics & Text | Print | Product List | Glossary On
Versions: 1 2 3 4 5 6 7 8 9 10 11 12 13 14 15 16 17 18 19 20 21 22 23 24 25 26 27 28 29 30 31 32 33 34 35 36 37 38 39 40 41 42 43 44 45 46 47 48 49 50
000
ASUS43 KFSD 270210
RWRSD

WEATHER ROUNDUP FOR SOUTH DAKOTA
NATIONAL WEATHER SERVICE SIOUX FALLS SD
800 PM CST MON JAN 26 2015

NOTE: "FAIR" INDICATES FEW OR NO CLOUDS BELOW 12,000 FEET WITH NO
SIGNIFICANT WEATHER AND/OR OBSTRUCTIONS TO VISIBILITY.


SDZ001>005-009-010-012>017-270300-
NORTHWEST AND NORTH CENTRAL SOUTH DAKOTA

CITY           SKY/WX    TMP DP  RH WIND       PRES   REMARKS
BUFFALO          N/A     50  32  50 SW6       29.90S
FAITH            N/A     48  30  49 SE7       29.96F
MOBRIDGE       PTCLDY    35  30  82 CALM      29.95F
$$

SDZ012>016-024>037-041>051-057-063-072>074-270300-
SOUTHWEST AND SOUTH CENTRAL SOUTH DAKOTA

CITY           SKY/WX    TMP DP  RH WIND       PRES   REMARKS
RAPID CTY ARPT CLEAR     45  28  51 CALM      30.00S
PIERRE         PTCLDY    37  28  70 E5        29.98R
CUSTER         CLEAR     49  27  42 W8        30.10S
ELLSWORTH AFB  CLEAR     51  29  42 W5        29.99F
PHILIP         CLEAR     39  29  67 W6        29.98S
PINE RIDGE     CLEAR     37  29  72 CALM      30.04F
SPEARFISH      FAIR      54  28  37 W9        30.02S
WINNER         FAIR      40  30  67 SE9       30.01S
$$

SDZ004>011-016>023-039-040-270300-
NORTHEAST SOUTH DAKOTA

CITY           SKY/WX    TMP DP  RH WIND       PRES   REMARKS
ABERDEEN       CLEAR     34  30  85 NW6       30.01R WCI  29
WATERTOWN      CLEAR     32  29  88 N9        29.97R WCI  24
SISSETON         N/A     33  31  92 N8        29.98R WCI  26
$$

SDZ017-020-022-023-036>040-048>070-270300-
SOUTHEAST SOUTH DAKOTA

CITY           SKY/WX    TMP DP  RH WIND       PRES   REMARKS
SIOUX FALLS    CLEAR     35  31  85 NW7       29.99R WCI  29
HURON          PTCLDY    33  31  92 NW7       29.99F WCI  27
CHAMBERLAIN    PTCLDY    41  32  70 E5        30.00S
MITCHELL       CLEAR     40  33  76 NW5       30.01S
YANKTON        FAIR      43  34  70 W12       30.02R
$$

ABBREVIATIONS USED IN REMARKS
   TC - TEMPERATURE IN CELSIUS
  WCI - WIND CHILL INDEX
   HX - HEAT INDEX
  VSB - VISIBILITY



USA.gov is the U.S. government's official web portal to all federal, state and local government web resources and services.